Location: Nelson
(41.2830°S, 173.2830°E)
Time: 04:39:56
(UTC+13:00)

Lacrosse 5 rocket - Pass Details

Date: 24 January 2019
Orbit: 469 x 630 km, 57.0° (Epoch: 06 February)

Event Time Altitude Azimuth Distance (km) Brightness Sun altitude
Rises 22:48:34 0° 216° (SW) 2,583 6.5 -17.8°
Reaches altitude 10° 22:52:22 10° 177° (S) 1,675 4.4 -18.2°
Maximum altitude 22:53:23 11° 162° (SSE) 1,616 4.1 -18.4°
Drops below altitude 10° 22:54:24 10° 146° (SE) 1,666 3.9 -18.5°
Enters shadow 22:56:34 - 119° (ESE) 2,078 4.1 -18.8°
